Regional Weather Roundup
Issued by NWS Little Rock, AR

Home | Current Version | Previous Version | Text Only | Print | Product List | Glossary On
Versions: 1 2 3 4 5 6 7 8 9 10 11 12 13 14 15 16 17 18 19 20 21 22 23 24 25 26 27 28 29 30 31 32 33 34 35 36 37 38 39 40 41 42 43 44 45 46 47 48 49 50
000
ASUS44 KLZK 250105
RWRLZK

WEATHER ROUNDUP FOR ARKANSAS
NATIONAL WEATHER SERVICE LITTLE ROCK AR
700 PM CST TUE JAN 24 2017

NOTE: "FAIR" INDICATES FEW OR NO CLOUDS BELOW 12,000 FEET WITH NO
SIGNIFICANT WEATHER AND/OR OBSTRUCTIONS TO VISIBILITY.

ARZ001-003-010-029-250200-
NORTHWEST ARKANSAS

CITY           SKY/WX    TMP DP  RH WIND       PRES   REMARKS
FAYETTEVILLE   CLOUDY    59  44  57 S10       29.59R
FORT SMITH     CLEAR     64  46  52 S6        29.60R
HARRISON       CLEAR     58  41  53 S14       29.61R
BENTONVILLE    CLEAR    N/A N/A N/A S14G21    29.57S
ROGERS         CLEAR     61  43  51 S13       29.58R
SILOAM SPGS    CLOUDY    63  43  48 S17G23    29.57R
HIGHFILL       CLOUDY    63  44  50 S17       29.56R
SPRINGDALE     CLEAR     63  43  48 S12       29.60R
$$

ARZ004-005-016-250200-
NORTH CENTRAL ARKANSAS

CITY           SKY/WX    TMP DP  RH WIND       PRES   REMARKS
BATESVILLE     CLEAR     55  43  62 SE10      29.71S
FLIPPIN        CLEAR     57  39  51 S8        29.62R
MTN HOME       CLEAR     55  41  59 S13       29.63R
$$

ARZ040-041-250200-
WEST CENTRAL ARKANSAS

CITY           SKY/WX    TMP DP  RH WIND       PRES   REMARKS
MENA           PTCLDY    68  52  56 SE5       29.66R
MOUNT IDA      CLEAR     61  45  55 CALM      29.64S
$$

ARZ009-017-025-026-028-250200-
NORTHEAST ARKANSAS

CITY           SKY/WX    TMP DP  RH WIND       PRES   REMARKS
CORNING        FAIR      50  43  76 SE6       29.73S
JONESBORO      CLEAR     54  42  64 S9        29.73R
NEWPORT        CLEAR     53  45  74 S12       29.72R
WALNUT RIDGE   CLEAR     52  41  66 S9        29.71F
BLYTHEVILLE    CLEAR     53  38  56 S7        29.74R
$$

ARZ022-023-033-042-044-250200-
CENTRAL ARKANSAS

CITY           SKY/WX    TMP DP  RH WIND       PRES   REMARKS
LITTLE ROCK    PTCLDY    54  47  77 E6        29.71R
N LITTLE ROCK    N/A     57  48  72 S8        29.73R
JACKSONVILLE   CLEAR     58  49  72 SE8       29.70S
SEARCY         CLEAR     57  46  66 S9        29.73S
HOT SPRINGS    CLEAR     58  44  60 E8        29.69R
RUSSELLVILLE   CLEAR     62  42  47 E6        29.66R
CLINTON        FAIR      52  45  76 CALM      29.69R
$$

ARZ036-250200-
EAST ARKANSAS

CITY           SKY/WX    TMP DP  RH WIND       PRES   REMARKS
WEST MEMPHIS   CLEAR     53  41  63 S12       29.75R
$$

ARZ050-053-066-070-073-250200-
SOUTHWEST ARKANSAS

CITY           SKY/WX    TMP DP  RH WIND       PRES   REMARKS
ARKADELPHIA    FAIR      55  50  83 CALM      29.69R
CAMDEN         CLEAR     59  41  51 SE3       29.70S
TEXARKANA      CLEAR     67  52  58 S10       29.66R
EL DORADO      CLEAR     62  47  57 SE8       29.71F
DE QUEEN       CLEAR     59  51  75 NE5       29.62S
$$

ARZ056-057-069-250200-
SOUTHEAST ARKANSAS

CITY           SKY/WX    TMP DP  RH WIND       PRES   REMARKS
PINE BLUFF     CLEAR     58  46  64 SE12      29.72S
STUTTGART      CLEAR     55  43  62 SE8       29.74S
MONTICELLO     CLEAR     59  45  59 S6        29.74S

$$





USA.gov is the U.S. government's official web portal to all federal, state and local government web resources and services.